Find Kosmos-2297

NORAD ID: 23404 Int'l Des: 1994-077 Owner: GRUR Country: RU operational
LEOCIRCULAR

实时位置

正在加载3D地球...

关于 Kosmos-2297

正在加载描述...

即将过境

Passes for default location (London). Set your location on the main map for personalized predictions.

高度历史

Loading altitude history...

两行轨道根数

1 23404U 94077A 26120.02933410 .00000381 00000-0 22545-3 0 9996
2 23404 71.0163 351.5923 0017439 268.8639 91.0485 14.13933845621745
Epoch: Apr 30, 2026 • Age: 9 hours

当前状态

高度 848.9 km
速度 7.43 km/s
星下点 -25.75°S, 169.32°E
发射日期 Nov 24, 1994
运行时间 31.4 years
类型 other

技术详情

分类 Payload
质量 3250.00 kg
干质量 3250.00 kg
总质量 3250.00 kg
长度 4.50 m
直径 1.40 m
跨度 22.70 m
形状 Cyl + 2 Pan + Ant
制造商 YUZHUA
平台类型 Tselina-2
阶段状态 In Orbit
所有者/国家 GRUR/RU

Most Searched